Location: Altleiningen
(49.5078°N, 8.0741°E)
Time: 04:18:42
(UTC+00:00)

USA 234 - Pass Details

Date: 03 March 2021
Orbit: 1102 x 1105 km, 123.0° (Epoch: 08 April)

Event Time Altitude Azimuth Distance (km) Brightness Sun altitude
Exits shadow 21:27:17 46° 298° (WNW) 1,454 4.1 -38.8°
Drops below altitude 10° 21:32:04 10° 268° (W) 2,962 5.9 -39.3°
Sets 21:34:35 0° 264° (W) 3,919 6.6 -39.6°
